Location: *
(40.4000°N, 15.1200°E)
Time: 05:30:14
(UTC+00:00)

Cosmos 2322 Rocket - Pass Details

Date: 09 April 2020
Orbit: 834 x 849 km, 71.0° (Epoch: 05 June)

Event Time Altitude Azimuth Distance (km) Brightness Sun altitude
Rises 21:37:07 0° 345° (NNW) 3,400 6.3 -37.9°
Reaches altitude 10° 21:39:55 10° 357° (N) 2,459 5.2 -38.1°
Enters shadow 21:42:15 21° 16° (NNE) 1,809 4.3 -38.3°
